Location: ????
(32.1228°N, 34.8377°E)
Time: 00:52:11
(UTC+00:00)

Cosmos 1484 Rocket - Pass Details

Date: 21 September 2020
Orbit: 507 x 558 km, 97.4° (Epoch: 21 October)

Event Time Altitude Azimuth Distance (km) Brightness Sun altitude
Rises 01:59:25 0° 16° (NNE) 2,737 6.8 -19.5°
Reaches altitude 10° 02:01:35 10° 21° (NNE) 1,843 5.9 -19.0°
Maximum altitude 02:05:31 56° 100° (E) 667 3.5 -18.2°
Drops below altitude 10° 02:09:25 10° 179° (S) 1,835 5.4 -17.4°
Sets 02:11:34 0° 183° (S) 2,724 6.2 -17.0°
